This demonstration page uses our WeatherBlox Daily Observations layout. Learn more.

Left ArrowRight Arrow

36.19886, -115.1175

Hourly Observations for February 19, 2017

Temp ( °F °C ) Dew Point ( °F °C ) Humidity (%) Winds ( mph kmh ) Pressure ( in mb ) Visibility ( mi km ) Precip ( " mm )
12:43 am 00:43 Cloudy 51 10.6 49 9.4 92 92 Calm 29.68 1005 10 16 0.00 0.00
12:53 am 00:53 Cloudy 51 10.6 49 9.4 92 92 Calm 29.71 1006 10 16 0.00 0.00
1:34 am 01:34 Cloudy with Light Rain 50 10 50 10 100 100 ESE 5 7 29.71 1006 4 6 0.00 0.00
1:39 am 01:39 Cloudy with Rain 50 10 50 10 100 100 ESE 3 6 29.71 1006 3 5 0.03 0.76
1:53 am 01:53 Cloudy 50 10 50 10 100 100 SE 5 7 29.72 1007 7 11 0.04 1.02
2:19 am 02:19 Cloudy 50 10 50 10 100 100 SE 7 11 29.71 1006 10 16 0.00 0.00
2:53 am 02:53 Cloudy 50 10 50 10 100 100 SE 8 13 29.72 1007 10 16 0.00 0.00
3:53 am 03:53 Cloudy 50 10 50 10 100 100 ESE 6 9 29.73 1007 10 16 0.00 0.00
4:01 am 04:01 Cloudy 49 9.4 49 9.4 100 100 ESE 8 13 29.71 1006 10 16 0.00 0.00
4:13 am 04:13 Cloudy 49 9.4 48 8.9 97 97 SE 8 13 29.71 1006 10 16 0.00 0.00
4:41 am 04:41 Partly Cloudy 48 8.9 47 8.3 96 96 ESE 8 13 29.71 1006 10 16 0.00 0.00
4:53 am 04:53 Mostly Clear 48 8.9 47 8.3 96 96 ESE 7 11 29.75 1008 10 16 0.00 0.00
5:53 am 05:53 Mostly Cloudy 47 8.3 46 7.8 97 97 ESE 7 11 29.78 1008 10 16 0.00 0.00
6:53 am 06:53 Cloudy 48 8.9 46 7.8 93 93 ESE 9 15 29.80 1009 10 16 0.00 0.00
7:53 am 07:53 Partly Cloudy 50 10 46 7.8 86 86 E 7 11 29.82 1010 10 16 0.00 0.00
8:53 am 08:53 Sunny 52 11.1 47 8.3 83 83 ESE 6 9 29.84 1011 10 16 0.00 0.00
9:26 am 09:26 Mostly Cloudy 54 12 48 9 82 82 ESE 7 11 29.77 1008 10 16 0.00 0.00
9:38 am 09:38 Partly Cloudy 54 12 48 9 82 82 ESE 6 9 29.80 1009 10 16 0.00 0.00
9:53 am 09:53 Sunny 55 12.8 47 8.3 74 74 ENE 6 9 29.86 1011 10 16 0.00 0.00
10:53 am 10:53 Cloudy 56 13.3 47 8.3 72 72 NE 6 9 29.86 1011 10 16 0.00 0.00
11:53 am 11:53 Cloudy 55 12.8 48 8.9 77 77 NNE 10 17 29.88 1012 10 16 0.00 0.00
12:53 pm 12:53 Cloudy 57 13.9 48 8.9 72 72 NE 6 9 29.87 1011 10 16 0.00 0.00
1:53 pm 13:53 Partly Cloudy 59 15 43 6.1 56 56 W 3 6 29.87 1011 10 16 0.00 0.00
2:53 pm 14:53 Cloudy 61 16.1 44 6.7 54 54 Calm 29.88 1012 10 16 0.00 0.00
3:53 pm 15:53 Cloudy 60 15.6 41 5 50 50 WSW 12 19 29.89 1012 10 16 0.00 0.00
4:53 pm 16:53 Sunny 60 15.6 40 4.4 47 47 SW 10 17 29.91 1013 10 16 0.00 0.00
5:53 pm 17:53 Clear 58 14.4 40 4.4 51 51 SW 10 17 29.94 1014 10 16 0.00 0.00
6:53 pm 18:53 Clear 56 13.3 41 5 57 57 S 7 11 29.98 1015 10 16 0.00 0.00
7:53 pm 19:53 Clear 53 11.7 43 6.1 69 69 SE 7 11 30.00 1016 10 16 0.00 0.00
8:53 pm 20:53 Clear 52 11.1 47 8.3 83 83 Calm 30.03 1017 10 16 0.00 0.00
9:53 pm 21:53 Clear 52 11.1 48 8.9 86 86 ENE 6 9 30.04 1017 10 16 0.00 0.00
10:53 pm 22:53 Mostly Clear 51 10.6 48 8.9 89 89 Calm 30.06 1018 10 16 0.00 0.00
11:53 pm 23:53 Mostly Cloudy 51 10.6 48 8.9 89 89 E 5 7 30.07 1018 10 16 0.00 0.00

Powered by AerisWeather